User: anonymous   Login
Location: Équennes
(49.7375°N, 1.9622°E)
Time: 03:15:50
(UTC+00:00)
Language:

Meteor 1-27 - Orbit

View from above orbital plane
View from above orbital plane
View from above satellite
View from above satellite

Ground track
Ground track

The orbit data is extracted from the following two-line orbital elements,

1  9903U 77024A   23147.72185167  .00000236  00000-0  12975-3 0  9993
2  9903  81.2698 138.0953 0036705 280.9958  78.7085 14.08465108370583
Epoch (UTC): 27 May 2023 17:19:27
Eccentricity: 0.0036705
inclination: 81.2698°
perigee height: 838 km
apogee height: 891 km
right ascension of ascending node: 138.0953°
argument of perigee: 280.9958°
revolutions per day: 14.08465108
mean anomaly at epoch: 78.7085°
orbit number at epoch: 37058

The dashed part of the orbit path shows where the satellite is in the earth's shadow,  

DLR